Weather History for KBGR - March, 2013

Change the Weather History Date:

Thursday, March 21, 2013

  Actual Average Record
Temperature  
Mean Temperature 28 °F 32 °F  
Max Temperature 37 °F 42 °F 83 °F (2012)
Min Temperature 18 °F 23 °F 2 °F (1986)
Degree Days  
Heating Degree Days 37 33  
Month to date heating degree days 701 768  
Since 1 July heating degree days 6078 6414  
Cooling Degree Days 0 0  
Month to date cooling degree days 0 0  
Year to date cooling degree days 0 0  
Moisture  
Dew Point 15 °F    
Average Humidity 65    
Maximum Humidity 92    
Minimum Humidity 38    
Precipitation  
Precipitation 0.00 in 0.11 in 1.24 in (1983)
Month to date precipitation 1.85 2.18  
Year to date precipitation 4.76 7.59  
Snow  
Snow 0.00 in 0.30 in 5.50 in (1970)
Month to date snowfall 13.7 8.6  
Since 1 July snowfall 73.2 59.3  
Snow Depth 10.00 in    
Sea Level Pressure  
Sea Level Pressure 29.69 in    
Wind  
Wind Speed 6 mph (SSW)    
Max Wind Speed 9 mph    
Max Gust Speed 17 mph    
Visibility 10 miles    
Events      
T = Trace of Precipitation, MM = Missing Value Source: NWS Daily Summary

Daily Weather History Graph

Daily Weather History Graph

Search for Another Location

Airport or City:

Trip Planner

Search our weather history database for the weather conditions in past years. The results will help you decide how hot, cold, wet, or windy it might be!

Date:

Astronomy

Mar. 21, 2013 Rise Set
Actual Time 6:36 AM EDT 6:49 PM EDT
Civil Twilight 6:06 AM EDT 7:18 PM EDT
Nautical Twilight 5:32 AM EDT 7:52 PM EDT
Astronomical Twilight 4:57 AM EDT 8:28 PM EDT
Moon 1:03 PM EDT (3/21) 3:08 AM EDT (3/21)
Length of Visible Light 13h 11m
Length of Day
12h 13m
Waxing Gibbous, 68% of the Moon is Illuminated
Mar 21
Waxing Gibbous
Mar 27
Full
Apr 3
Last Quarter
Apr 10
New
Apr 18
First Quarter

Hourly Weather History & Observations

Time (EDT) Temp. Windchill Dew Point Humidity Pressure Visibility Wind Dir Wind Speed Gust Speed Precip Events Conditions
12:53 AM 24.8 °F 16.9 °F 19.4 °F 80% 29.66 in 10.0 mi SSW 6.9 mph - N/A   Partly Cloudy
1:53 AM 24.8 °F 19.1 °F 19.4 °F 80% 29.66 in 10.0 mi SW 4.6 mph - N/A   Clear
2:53 AM 24.8 °F 16.9 °F 19.4 °F 80% 29.67 in 10.0 mi SSW 6.9 mph - N/A   Clear
3:53 AM 21.2 °F 12.6 °F 17.6 °F 86% 29.68 in 10.0 mi South 6.9 mph - N/A   Clear
4:53 AM 23.0 °F 13.9 °F 15.8 °F 74% 29.69 in 10.0 mi South 8.1 mph - N/A   Clear
5:53 AM 24.1 °F 14.4 °F 16.0 °F 71% 29.72 in 10.0 mi SSW 9.2 mph - N/A   Clear
6:53 AM 21.0 °F 14.6 °F 15.1 °F 78% 29.73 in 10.0 mi South 4.6 mph - N/A   Clear
7:53 AM 23.0 °F 18.4 °F 16.0 °F 74% 29.75 in 10.0 mi SSW 3.5 mph - N/A   Clear
8:53 AM 28.0 °F 22.8 °F 16.0 °F 61% 29.75 in 10.0 mi WSW 4.6 mph - N/A   Partly Cloudy
9:53 AM 30.9 °F 25.2 °F 14.0 °F 50% 29.74 in 10.0 mi Variable 5.8 mph - N/A   Partly Cloudy
10:53 AM 32.0 °F 25.6 °F 12.9 °F 45% 29.73 in 10.0 mi SW 6.9 mph - N/A   Scattered Clouds
11:53 AM 34.0 °F 28.8 °F 10.9 °F 38% 29.72 in 10.0 mi West 5.8 mph - N/A   Scattered Clouds
12:53 PM 34.0 °F 27.2 °F 10.9 °F 38% 29.72 in 10.0 mi SSW 8.1 mph 17.3 mph N/A   Scattered Clouds
1:53 PM 36.0 °F 29.0 °F 14.0 °F 41% 29.68 in 10.0 mi South 9.2 mph - N/A   Partly Cloudy
2:53 PM 36.0 °F - 12.9 °F 39% 29.68 in 10.0 mi Calm Calm - N/A   Scattered Clouds
3:53 PM 36.0 °F 31.1 °F 14.0 °F 41% 29.65 in 10.0 mi South 5.8 mph - N/A   Scattered Clouds
4:53 PM 35.1 °F 30.1 °F 15.1 °F 44% 29.64 in 10.0 mi ESE 5.8 mph - N/A   Scattered Clouds
5:53 PM 35.1 °F 29.3 °F 12.9 °F 40% 29.64 in 10.0 mi SSE 6.9 mph - N/A   Scattered Clouds
6:53 PM 34.0 °F 31.0 °F 15.1 °F 46% 29.64 in 10.0 mi South 3.5 mph - N/A   Scattered Clouds
7:53 PM 26.1 °F - 16.0 °F 66% 29.64 in 10.0 mi Calm Calm - N/A   Partly Cloudy
11:53 PM 17.6 °F - 15.8 °F 93% 29.60 in 10.0 mi Calm Calm - N/A   Partly Cloudy